This is the latest recevied weather packets stored in our database for station/object G8SIB-9. If no packets are shown the sender has not sent any weather packets the latest 1 day(s).
| Time | Temp. | Humidity | Pressure | Rain* | Wind** | Luminosity | Snow |
|---|---|---|---|---|---|---|---|
| 1778053045 | 10.56° C | 69% | 1009.5 hPa | 0 mm | - | - | - |
| 1778052445 | 11.11° C | 67% | 1009.4 hPa | 0 mm | - | - | - |
| 1778050642 | 9.44° C | 72% | 1009.3 hPa | 0 mm | - | - | - |
| 1778050041 | 8.89° C | 75% | 1009.3 hPa | 0 mm | - | - | - |
| 1778049441 | 8.89° C | 74% | 1009.2 hPa | 0 mm | - | - | - |
| 1778048840 | 8.33° C | 76% | 1009.2 hPa | 0 mm | - | - | - |
| 1778048239 | 7.78° C | 79% | 1009.1 hPa | 0 mm | - | - | - |
| 1778047638 | 7.22° C | 81% | 1009.2 hPa | 0 mm | - | - | - |
| 1778045834 | 6.11° C | 86% | 1009 hPa | 0 mm | - | - | - |
| 1778044633 | 5.56° C | 87% | 1009.1 hPa | 0 mm | - | - | - |
| 1778043432 | 5.56° C | 87% | 1009.1 hPa | 0 mm | - | - | - |
| 1778042230 | 5.56° C | 87% | 1009.1 hPa | 0 mm | - | - | - |
| 1778041629 | 5.56° C | 87% | 1009.2 hPa | 0 mm | - | - | - |
| 1778041029 | 5.56° C | 86% | 1009.1 hPa | 0 mm | - | - | - |
| 1778039827 | 6.11° C | 84% | 1009.1 hPa | 0 mm | - | - | - |
| 1778039226 | 6.11° C | 84% | 1009.2 hPa | 0 mm | - | - | - |
| 1778038626 | 6.11° C | 84% | 1009.2 hPa | 0 mm | - | - | - |
| 1778036823 | 6.67° C | 83% | 1009.4 hPa | 0 mm | - | - | - |
| 1778036222 | 7.22° C | 82% | 1009.6 hPa | 0 mm | - | - | - |
| 1778035020 | 7.22° C | 80% | 1009.6 hPa | 0 mm | - | - | - |
| 1778034420 | 7.78° C | 79% | 1009.5 hPa | 0 mm | - | - | - |
| 1778033819 | 7.78° C | 78% | 1009.6 hPa | 0 mm | - | - | - |
| 1778033219 | 8.33° C | 77% | 1009.6 hPa | 0 mm | - | - | - |
| 1778032618 | 8.33° C | 76% | 1009.7 hPa | 0 mm | - | - | - |
| 1778032016 | 8.33° C | 76% | 1009.7 hPa | 0 mm | - | - | - |
* Rain latest hour (hover to see other rain measurements)
** Current wind speed in m/s (hover to see current wind gust speed)